TimeCDT,TemperatureF,Dew PointF,Humidity,Sea Level PressureIn,VisibilityMPH,Wind Direction,Wind SpeedMPH,Gust SpeedMPH,PrecipitationIn,Events,Conditions,WindDirDegrees,DateUTC
12:55 AM,64.2,60.4,87,30.03,10.0,SSE,4.6,-,N/A,,Clear,160,2012-10-22 05:55:00
1:15 AM,63.1,60.4,91,30.03,10.0,SSE,6.9,-,N/A,,Clear,150,2012-10-22 06:15:00
1:35 AM,63.3,60.8,91,30.02,10.0,SSE,5.8,-,N/A,,Clear,160,2012-10-22 06:35:00
1:55 AM,64.4,61.2,89,30.03,10.0,South,9.2,-,N/A,,Clear,170,2012-10-22 06:55:00
2:15 AM,64.4,61.2,89,30.03,10.0,SSE,6.9,-,N/A,,Clear,160,2012-10-22 07:15:00
2:35 AM,62.8,60.3,91,30.03,10.0,SSE,5.8,-,N/A,,Clear,150,2012-10-22 07:35:00
2:55 AM,61.0,59.5,95,30.03,10.0,SSE,5.8,-,N/A,,Clear,160,2012-10-22 07:55:00
3:15 AM,60.6,59.5,96,30.03,10.0,SE,4.6,-,N/A,,Clear,140,2012-10-22 08:15:00
3:55 AM,59.9,59.7,99,30.03,10.0,SSE,3.5,-,N/A,,Clear,160,2012-10-22 08:55:00
4:15 AM,59.9,59.4,98,30.03,10.0,SSE,3.5,-,N/A,,Clear,160,2012-10-22 09:15:00
4:35 AM,60.1,59.9,99,30.03,7.0,Calm,Calm,-,N/A,,Clear,0,2012-10-22 09:35:00
4:55 AM,58.8,58.6,99,30.04,7.0,Calm,Calm,-,N/A,,Clear,0,2012-10-22 09:55:00
5:15 AM,59.2,59.2,100,30.04,3.0,Calm,Calm,-,N/A,,Clear,0,2012-10-22 10:15:00
5:35 AM,58.6,58.6,100,30.05,5.0,Calm,Calm,-,N/A,,Clear,0,2012-10-22 10:35:00
5:55 AM,58.1,58.1,100,30.06,2.5,Calm,Calm,-,N/A,,Clear,0,2012-10-22 10:55:00
6:15 AM,57.9,57.9,100,30.06,2.0,Calm,Calm,-,N/A,,Clear,0,2012-10-22 11:15:00
6:35 AM,58.3,58.3,100,30.07,10.0,SE,4.6,-,N/A,,Clear,140,2012-10-22 11:35:00
6:55 AM,59.4,59.4,100,30.07,10.0,ESE,4.6,-,N/A,,Clear,120,2012-10-22 11:55:00
7:15 AM,59.0,59.0,100,30.08,7.0,SE,3.5,-,N/A,,Clear,140,2012-10-22 12:15:00
7:35 AM,59.0,59.0,100,30.08,7.0,SSE,5.8,-,N/A,,Clear,150,2012-10-22 12:35:00
7:55 AM,59.4,59.4,100,30.09,7.0,SE,3.5,-,N/A,,Clear,140,2012-10-22 12:55:00
8:15 AM,60.8,60.4,99,30.10,7.0,SE,4.6,-,N/A,,Clear,140,2012-10-22 13:15:00
8:35 AM,61.9,60.8,96,30.10,10.0,SE,6.9,-,N/A,,Clear,140,2012-10-22 13:35:00
8:55 AM,63.3,61.3,93,30.11,10.0,SSE,4.6,-,N/A,,Clear,150,2012-10-22 13:55:00
9:15 AM,65.3,61.9,89,30.11,10.0,SSE,6.9,-,N/A,,Clear,160,2012-10-22 14:15:00
9:35 AM,67.3,62.8,85,30.11,10.0,SSE,8.1,-,N/A,,Clear,150,2012-10-22 14:35:00
9:55 AM,69.6,63.7,81,30.10,10.0,SSE,6.9,-,N/A,,Clear,150,2012-10-22 14:55:00
10:15 AM,71.4,63.9,77,30.10,10.0,SE,9.2,-,N/A,,Clear,140,2012-10-22 15:15:00
10:35 AM,73.4,64.2,73,30.10,10.0,SE,6.9,-,N/A,,Clear,140,2012-10-22 15:35:00
10:55 AM,75.2,65.3,71,30.09,10.0,SE,6.9,-,N/A,,Clear,140,2012-10-22 15:55:00
11:15 AM,77.4,64.8,65,30.09,10.0,South,5.8,-,N/A,,Clear,170,2012-10-22 16:15:00
11:35 AM,78.1,64.9,64,30.09,10.0,SSE,6.9,-,N/A,,Clear,160,2012-10-22 16:35:00
11:55 AM,79.7,64.0,59,30.09,10.0,SSE,5.8,-,N/A,,Clear,150,2012-10-22 16:55:00
12:15 PM,81.5,64.2,56,30.08,10.0,SE,6.9,-,N/A,,Clear,140,2012-10-22 17:15:00
12:35 PM,82.8,62.6,50,30.07,10.0,South,8.1,-,N/A,,Clear,170,2012-10-22 17:35:00
12:55 PM,83.3,61.3,47,30.06,10.0,SSE,8.1,-,N/A,,Clear,160,2012-10-22 17:55:00
1:15 PM,84.2,60.4,45,30.05,10.0,SE,8.1,-,N/A,,Clear,140,2012-10-22 18:15:00
1:35 PM,84.7,60.8,44,30.04,10.0,SSE,9.2,-,N/A,,Clear,160,2012-10-22 18:35:00
1:55 PM,86.0,60.3,42,30.03,10.0,SE,6.9,-,N/A,,Clear,140,2012-10-22 18:55:00
2:15 PM,86.0,59.4,40,30.02,10.0,SSE,9.2,-,N/A,,Clear,160,2012-10-22 19:15:00
2:35 PM,87.3,57.6,36,30.01,10.0,SSW,5.8,-,N/A,,Clear,210,2012-10-22 19:35:00
2:55 PM,87.3,58.5,38,30.01,10.0,SSE,9.2,-,N/A,,Clear,150,2012-10-22 19:55:00
3:15 PM,87.1,59.7,40,30.00,10.0,SSE,6.9,-,N/A,,Clear,150,2012-10-22 20:15:00
3:35 PM,87.3,56.1,35,30.00,10.0,SSE,6.9,-,N/A,,Clear,160,2012-10-22 20:35:00
3:55 PM,87.3,56.5,35,30.00,10.0,SSE,4.6,-,N/A,,Clear,150,2012-10-22 20:55:00
4:15 PM,87.3,56.5,35,30.00,10.0,South,4.6,-,N/A,,Clear,180,2012-10-22 21:15:00
4:35 PM,86.9,56.3,35,30.00,10.0,SSE,4.6,-,N/A,,Clear,160,2012-10-22 21:35:00
4:55 PM,86.7,56.7,36,30.00,10.0,SSE,3.5,-,N/A,,Clear,150,2012-10-22 21:55:00
5:15 PM,85.5,56.1,37,30.00,10.0,SE,8.1,-,N/A,,Clear,130,2012-10-22 22:15:00
5:35 PM,84.2,56.3,38,30.00,10.0,SSE,5.8,-,N/A,,Clear,150,2012-10-22 22:35:00
5:55 PM,82.4,54.5,38,30.00,10.0,SE,5.8,-,N/A,,Clear,140,2012-10-22 22:55:00
6:15 PM,79.3,54.9,43,30.00,10.0,SE,4.6,-,N/A,,Clear,140,2012-10-22 23:15:00
6:35 PM,77.0,54.9,46,30.00,10.0,ESE,4.6,-,N/A,,Clear,120,2012-10-22 23:35:00
6:55 PM,76.6,58.3,53,30.00,10.0,SE,5.8,-,N/A,,Clear,130,2012-10-22 23:55:00
7:15 PM,73.8,57.7,57,30.01,10.0,SSE,3.5,-,N/A,,Clear,150,2012-10-23 00:15:00
7:35 PM,72.1,57.9,61,30.01,10.0,SSE,3.5,-,N/A,,Clear,160,2012-10-23 00:35:00
8:15 PM,68.7,59.7,73,30.02,10.0,Calm,Calm,-,N/A,,Clear,0,2012-10-23 01:15:00
8:55 PM,67.1,59.0,75,30.02,10.0,Calm,Calm,-,N/A,,Clear,0,2012-10-23 01:55:00
9:15 PM,66.7,59.5,78,30.03,10.0,Calm,Calm,-,N/A,,Clear,0,2012-10-23 02:15:00
9:55 PM,64.6,60.3,86,30.03,10.0,Calm,Calm,-,N/A,,Clear,0,2012-10-23 02:55:00
10:15 PM,63.5,60.1,89,30.03,10.0,Calm,Calm,-,N/A,,Clear,0,2012-10-23 03:15:00
10:35 PM,64.4,59.5,84,30.03,10.0,Calm,Calm,-,N/A,,Clear,0,2012-10-23 03:35:00
10:55 PM,63.7,59.9,87,30.04,10.0,Calm,Calm,-,N/A,,Clear,0,2012-10-23 03:55:00
11:15 PM,63.0,59.0,87,30.03,10.0,Calm,Calm,-,N/A,,Clear,0,2012-10-23 04:15:00
11:35 PM,63.1,59.4,87,30.03,10.0,Calm,Calm,-,N/A,,Clear,0,2012-10-23 04:35:00